KUIPER-00225

导读

KUIPER-00225是亚马逊柯伊伯(Project Kuiper)星座的低轨互联网卫星,于2026年2月12日由法国发射。作为亚马逊全球卫星互联网项目组成部分,它运行在低地球轨道,旨在为全球提供高速低延迟宽带网络,尤其服务偏远地区,与AWS云服务深度整合,可支撑企业、物联网及应急通信等多元场景,是柯伊伯星座大规模部署阶段的重要组成卫星。

基本信息
目录编号:
67784
目录名称:
KUIPER-00225
国际标识:
2026-030W
轨道中心:
EARTH
卫星名称:
KUIPER-00225
卫星全名:
KUIPER-00225
卫星状态:
在轨 (已飞行205 天)
发射日期:
2026-02-12 UTC
国别 :
美国 (US)
星等 :
--
轨道信息
数据来源 国际轨道数据
星历时间: 2026-09-05T09:27:54+0800
11小时前
查看轨道信息
半长轴: 7007.684km
偏心率: 0.0000955
轨道倾角: 51.898°
近地点辐角 100.201°
升交点赤经 125.025°
平近点角 259.906°
近地点: 628.877km
远地点: 630.217km
周期: 97.302分钟
每日圈数: 14.799295
详细信息
使用方式:
暂无
2D轨道图
3D轨道图
轨道高度分析图
轨道倾角分析图
轨道综合分析图
查看轨道综合分析图